Weather History for PAFB - January, 2014

Change the Weather History Date:

Wednesday, January 22, 2014

  Actual Average Record
Temperature  
Mean Temperature 28 °F -  
Max Temperature 33 °F 0 °F 35 °F (2008)
Min Temperature 24 °F -12 °F -36 °F (1999)
Degree Days  
Heating Degree Days 36    
Moisture  
Dew Point 24 °F    
Average Humidity 85    
Maximum Humidity 93    
Minimum Humidity 69    
Precipitation  
Precipitation 0.00 in - - ()
Snow  
Snow 0.00 in - - ()
Snow Depth 18.00 in    
Sea Level Pressure  
Sea Level Pressure 29.72 in    
Wind  
Wind Speed 3 mph (ENE)    
Max Wind Speed 10 mph    
Max Gust Speed -    
Visibility 10 miles    
Events      
Averages and records for this station are not official NWS values.
T = Trace of Precipitation, MM = Missing Value Source: NWS Daily Summary

Daily Weather History Graph

Daily Weather History Graph

Search for Another Location

Airport or City:

Trip Planner

Search our weather history database for the weather conditions in past years. The results will help you decide how hot, cold, wet, or windy it might be!

Date:

Astronomy

Jan. 22, 2014 Rise Set
Actual Time 10:06 AM AKST 3:58 PM AKST
Civil Twilight 9:00 AM AKST 5:04 PM AKST
Nautical Twilight 7:57 AM AKST 6:08 PM AKST
Astronomical Twilight 6:58 AM AKST 7:06 PM AKST
Moon 12:12 AM AKST (1/22) 10:31 AM AKST (1/22)
Length of Visible Light 8h 03m
Length of Day
5h 52m
Waning Gibbous, 64% of the Moon is Illuminated
Jan 22
Waning Gibbous
Jan 23
Last Quarter
Jan 30
New
Feb 6
First Quarter
Feb 14
Full

Hourly Weather History & Observations

Time (AKST) Temp. Windchill Dew Point Humidity Pressure Visibility Wind Dir Wind Speed Gust Speed Precip Events Conditions
12:56 AM 30.0 °F - 23.0 °F 75% 29.69 in 10.0 mi Calm Calm - N/A   Overcast
1:56 AM 28.0 °F 22.8 °F 23.0 °F 81% 29.74 in 10.0 mi ESE 4.6 mph - N/A   Overcast
2:31 AM 28.4 °F 23.3 °F 23.0 °F 80% 29.74 in 10.0 mi ENE 4.6 mph - N/A   Overcast
2:56 AM 28.0 °F 21.7 °F 23.0 °F 81% 29.78 in 10.0 mi ENE 5.8 mph - N/A   Overcast
3:32 AM 28.4 °F 22.2 °F 23.0 °F 80% 29.76 in 10.0 mi ENE 5.8 mph - N/A   Overcast
3:56 AM 27.0 °F 19.5 °F 23.0 °F 85% 29.79 in 10.0 mi ENE 6.9 mph - N/A   Overcast
4:33 AM 28.4 °F 24.6 °F 23.0 °F 80% 29.77 in 10.0 mi NE 3.5 mph - N/A   Overcast
4:56 AM 28.0 °F - 24.1 °F 85% 29.80 in 10.0 mi Calm Calm - N/A   Overcast
5:23 AM 26.6 °F 22.6 °F 24.8 °F 93% 29.78 in 10.0 mi ENE 3.5 mph - N/A   Overcast
5:56 AM 28.9 °F 23.9 °F 24.1 °F 82% 29.81 in 10.0 mi East 4.6 mph - N/A   Overcast
6:22 AM 28.4 °F 23.3 °F 24.8 °F 86% 29.80 in 7.0 mi ENE 4.6 mph - N/A   Overcast
6:55 AM 28.4 °F - 24.8 °F 86% 29.83 in 7.0 mi Calm Calm - N/A   Overcast
7:55 AM 30.2 °F - 26.6 °F 86% 29.83 in 7.0 mi Calm Calm - N/A   Overcast
8:44 AM 30.2 °F 24.3 °F 26.6 °F 86% 29.79 in 7.0 mi NE 5.8 mph - N/A   Mostly Cloudy
8:55 AM 28.4 °F 23.3 °F 26.6 °F 93% 29.82 in 7.0 mi ENE 4.6 mph - N/A   Mostly Cloudy
9:55 AM 26.6 °F - 24.8 °F 93% 29.81 in 13.0 mi Calm Calm - N/A   Overcast
10:55 AM 28.4 °F - 26.6 °F 93% 29.79 in 25.0 mi Calm Calm - N/A   Mostly Cloudy
11:55 AM 26.6 °F - 24.8 °F 93% 29.77 in 25.0 mi Calm Calm - N/A   Mostly Cloudy
12:55 PM 24.8 °F - 23.0 °F 93% 29.75 in 25.0 mi Calm Calm - N/A   Mostly Cloudy
1:55 PM 26.6 °F - 24.8 °F 93% 29.72 in 25.0 mi Calm Calm - N/A   Mostly Cloudy
2:55 PM 26.6 °F 21.2 °F 23.0 °F 86% 29.68 in 25.0 mi NNE 4.6 mph - N/A   Overcast
3:55 PM 28.4 °F 23.3 °F 24.8 °F 86% 29.64 in 25.0 mi SSE 4.6 mph - N/A   Mostly Cloudy
4:55 PM 24.8 °F - 21.2 °F 86% 29.62 in 10.0 mi Calm Calm - N/A   Mostly Cloudy
5:55 PM 30.2 °F 21.3 °F 21.2 °F 69% 29.57 in 10.0 mi East 10.4 mph - N/A   Mostly Cloudy
6:55 PM 28.4 °F 23.3 °F 24.8 °F 86% 29.59 in 10.0 mi East 4.6 mph - N/A   Mostly Cloudy
7:55 PM 33.8 °F 27.0 °F 26.6 °F 75% 29.56 in 10.0 mi East 8.1 mph - N/A   Mostly Cloudy
8:55 PM 30.2 °F 23.4 °F 24.8 °F 80% 29.55 in 10.0 mi East 6.9 mph - N/A   Mostly Cloudy
10:56 PM 30.9 °F 22.8 °F 25.0 °F 79% 29.54 in 10.0 mi ENE 9.2 mph - N/A   Clear
11:56 PM 25.0 °F - 21.0 °F 85% 29.55 in 10.0 mi Calm Calm - N/A   Clear